sat.trackr.live / text

‹ back to catalog

STARLINK-1596

NORAD 46141 · 2020-057AA

PAYLOAD ACTIVE UNKNOWN

§ Identity

Operator
Country
US
Launch date
2020-08-18
Launch site
AFETR
Launch vehicle
Mass (kg)
RCS (m²)

Purposes: comms

External: N2YO · Heavens-Above · Gunter

§ Orbital elements

Epoch: 2026-05-24T17:18:52.478208Z

Period
92.50 min
Inclination
53.0351°
Eccentricity
0.0006101
Mean motion
15.56827575 rev/d
Perigee alt
392.7 km
Apogee alt
401.0 km
Semi-major
6,775.0 km
B*
9.1914e-4
RAAN
225.3370°
Arg perigee
344.2287°
Mean anomaly
15.8533°
Rev number
31,907

§ Raw data

STARLINK-15961 46141U 20057AA  26144.72144072  .00067243  00000+0  91914-3 0  99922 46141  53.0351 225.3370 0006101 344.2287  15.8533 15.56827575319071

JSON: /api/v1/satellites/46141 · /tle

For live sub-satellite position, see the globe view (requires WebGL).

§ Visibility from observer

Set your observer location to see the next 7 days of passes ≥ 10°. The values pass through the URL so the page stays shareable.

No JS? Fill the form by hand. The geolocation button needs JavaScript.